Regional Weather Roundup
Issued by NWS

Home | Current Version | Previous Version | Text Only | Print | Product List | Glossary Off
Versions: 1 2 3 4 5 6 7 8 9 10 11 12 13 14 15 16 17 18 19 20 21 22 23 24 25 26 27

000
ASUS43 KDMX 232207
RWRIA

WEATHER ROUNDUP FOR IOWA
NATIONAL WEATHER SERVICE DES MOINES IA
500 PM CDT WED APR 23 2014

NOTE: "FAIR" INDICATES FEW OR NO CLOUDS BELOW 12,000 FEET WITH NO
SIGNIFICANT WEATHER AND/OR OBSTRUCTIONS TO VISIBILITY.

* - THESE STATIONS ARE NOT NWS STATIONS...THUS NOT UNDER NWS
QUALITY CONTROL.  THEY ALSO DO NOT REPORT WEATHER SUCH
AS PRECIPITATION OR FOG.

IAZ001>003-012>014-020>022-031>034-043>046-232300-
   NORTHWEST IOWA

CITY           SKY/WX    TMP DP  RH WIND       PRES   REMARKS
CARROLL *      CLOUDY    50  43  76 SE26G37   29.77F
CHEROKEE *     MOSUNNY   55  41  58 SE23G33   29.76F
DENISON *      SUNNY     54  43  66 S22G38    29.73S
LE MARS *      SUNNY     61  41  48 S25G36    29.69F
ORANGE CITY *  MOSUNNY   61  39  44 SE23G31   29.71S
SHELDON *      MOSUNNY   57  41  54 SE29G40   29.72F
SIOUX CITY     MOSUNNY   63  43  48 S28G35    29.69F
SPENCER        CLOUDY    50  38  63 SE32G45   29.77F
STORM LAKE *   MOSUNNY   52  39  62 SE29G39   29.75F
$$

IAZ055>058-069>071-079>083-090>094-232300-
   SOUTHWEST IOWA

CITY           SKY/WX    TMP DP  RH WIND       PRES   REMARKS
ATLANTIC *     LGT RAIN  52  43  71 SE16G23   29.79R
AUDUBON *      LGT RAIN  48  41  76 SE25G35   29.76F
CLARINDA *     PTSUNNY   55  45  67 SE15G23   29.75F
COUNCIL BLFS * CLOUDY    52  48  87 SE22G29   29.70F
CRESTON *      PTSUNNY   50  43  76 E22       29.81R
HARLAN  *      PTSUNNY   52  46  82 SE21G35   29.75F
LAMONI         CLOUDY    56  40  55 SE17G23   29.82F
RED OAK *      PTSUNNY   55  43  62 SE15G24   29.76R
SHENANDOAH *   PTSUNNY   57  45  62 SE20      29.73S
$$

IAZ047>049-059>061-072>074-084-232300-
   CENTRAL IOWA

CITY           SKY/WX    TMP DP  RH WIND       PRES   REMARKS
AMES           LGT RAIN  44  42  93 SE23G31   29.86F FOG
ANKENY *       LGT RAIN  46  41  81 E14G22    29.90F
CHARITON *     SUNNY     50  41  71 SE25G31   29.86F
DES MOINES     LGT RAIN  48  40  73 SE20G25   29.87F
GRINNELL*      LGT RAIN  46  41  81 E18       29.94F
KNOXVILLE *    PTSUNNY   48  39  71 SE13G24   29.91R
MARSHALLTOWN   LGT RAIN  44  40  85 SE18G24   29.95R
NEWTON *       CLOUDY    46  39  76 SE13G22   29.95S
PELLA *        CLOUDY    48  39  71 SE13G22   29.95R
PERRY *        CLOUDY    46  41  81 SE24G35   29.81F
$$

IAZ004>006-015-016-023>025-035-036-232300-
   NORTH CENTRAL IOWA

CITY           SKY/WX    TMP DP  RH WIND       PRES   REMARKS
ALGONA *       CLOUDY    45  39  81 SE25G39   29.84F
CLARION *      CLOUDY    43  39  87 SE25G32   29.89F
ESTHERVILLE    CLOUDY    46  38  73 SE31G43   29.80F
FORT DODGE *   CLOUDY    46  37  71 SE21G36   29.84F
MASON CITY     LGT RAIN  44  36  73 SE22G30   29.95R
FOREST CITY *  DRIZZLE   45  37  76 SE18G29   29.92S
IOWA FALLS *   CLOUDY    45  39  81 SE23G32   29.92F
$$

IAZ007>011-017>019-026>030-037>042-050>054-066-232300-
   NORTHEAST IOWA

CITY           SKY/WX    TMP DP  RH WIND       PRES   REMARKS
CEDAR RAPIDS   LGT RAIN  45  40  82 E15       29.97F
CHARLES CITY * CLOUDY    45  36  70 SE16G23   29.96R
CLINTON *      CLOUDY    54  28  37 SE12      30.09F
DECORAH *      CLOUDY    50  28  43 SE13G23   29.98F
DUBUQUE        CLOUDY    50  29  44 SE16      30.06F
MONTICELLO *   PTSUNNY   48  34  57 E13       30.02F
OELWEIN *      CLOUDY   N/A N/A N/A SE17G28   29.98F HAZE
WATERLOO       LGT RAIN  45  39  79 SE15      29.96F
$$

IAZ064-065-067-068-078-232300-
   EAST CENTRAL IOWA

CITY           SKY/WX    TMP DP  RH WIND       PRES   REMARKS
DAVENPORT      LGT RAIN  53  31  42 E12       30.06F
IOWA CITY      LGT RAIN  48  41  76 E10G18    30.01F
MT. PLEASANT * CLOUDY    52  41  66 E7        30.02R
MUSCATINE *    CLOUDY    50  43  76 SE7       30.02F
QUAD CITIES    LGT RAIN  54  34  46 E12       30.05F
$$

IAZ062-063-075>077-085>089-095>099-232300-
   SOUTHEAST IOWA

CITY           SKY/WX    TMP DP  RH WIND       PRES   REMARKS
BURLINGTON     CLOUDY    53  38  56 E10       30.01F
FAIRFIELD *    CLOUDY    50  41  71 SE13      30.00F
FORT MADISON * PTSUNNY   54  41  62 E8        30.02R
KEOKUK *       MOSUNNY   57  37  47 E15       29.98F
OSKALOOSA *    CLOUDY    48  41  76 SE23      29.93F
CENTERVILLE *  SUNNY     50  39  66 SE13G21   29.94S
OTTUMWA        CLOUDY    49  40  71 E21G28    29.91F
WASHINGTON *   LGT RAIN  48  41  76 SE14      30.02S
$$

ABBREVIATIONS USED IN REMARKS
   TC - TEMPERATURES IN CELSIUS
  WCI - WIND CHILL INDEX
   HX - HEAT INDEX
  VSB - VISIBILITY
$$




USA.gov is the U.S. government's official web portal to all federal, state and local government web resources and services.